Weather History for KROW - October, 2012

Change the Weather History Date:

Saturday, October 13, 2012

  Actual Average Record
Temperature  
Mean Temperature 65 °F 62 °F  
Max Temperature 78 °F 77 °F 93 °F (1992)
Min Temperature 51 °F 48 °F 33 °F (1969)
Degree Days  
Heating Degree Days 0 4  
Month to date heating degree days 40 37  
Since 1 July heating degree days 49 53  
Cooling Degree Days 0 1  
Month to date cooling degree days 24 27  
Year to date cooling degree days 2323 1778  
Growing Degree Days 16 (Base 50)    
Moisture  
Dew Point 43 °F    
Average Humidity 58    
Maximum Humidity 100    
Minimum Humidity 16    
Precipitation  
Precipitation 0.00 in 0.04 in 0.76 in (1916)
Month to date precipitation 0.53 0.55  
Year to date precipitation 6.05 11.01  
Sea Level Pressure  
Sea Level Pressure 29.88 in    
Wind  
Wind Speed 9 mph (WNW)    
Max Wind Speed 22 mph    
Max Gust Speed 26 mph    
Visibility 9 miles    
Events      
T = Trace of Precipitation, MM = Missing Value Source: NWS Daily Summary

Daily Weather History Graph

Daily Weather History Graph

Search for Another Location

Airport or City:

Trip Planner

Search our weather history database for the weather conditions in past years. The results will help you decide how hot, cold, wet, or windy it might be!

Date:

Astronomy

Oct. 13, 2012 Rise Set
Actual Time 7:01 AM MDT 6:26 PM MDT
Civil Twilight 6:36 AM MDT 6:51 PM MDT
Nautical Twilight 6:07 AM MDT 7:20 PM MDT
Astronomical Twilight 5:39 AM MDT 7:48 PM MDT
Moon 4:58 AM MDT (10/13) 5:08 PM MDT (10/13)
Length of Visible Light 12h 14m
Length of Day
11h 24m
Waning Crescent, 4% of the Moon is Illuminated
Oct 13
Waning Crescent
Oct 15
New
Oct 21
First Quarter
Oct 29
Full
Nov 6
Last Quarter

Hourly Weather History & Observations

Time (MDT) Temp. Dew Point Humidity Pressure Visibility Wind Dir Wind Speed Gust Speed Precip Events Conditions
12:07 AM 62.6 °F 60.8 °F 94% 29.98 in 9.0 mi NNW 5.8 mph - N/A   Scattered Clouds
1:51 AM 63.0 °F 62.1 °F 97% 29.81 in 10.0 mi South 6.9 mph - N/A   Clear
2:51 AM 61.0 °F 60.1 °F 97% 29.80 in 9.0 mi SSW 3.5 mph - N/A   Clear
3:29 AM 60.8 °F 59.0 °F 94% 29.95 in 0.8 mi Calm Calm - N/A   Clear
3:33 AM 60.8 °F 59.0 °F 94% 29.96 in 2.5 mi Calm Calm - N/A   Clear
3:37 AM 60.8 °F 59.0 °F 94% 29.95 in 7.0 mi West 4.6 mph - N/A   Partly Cloudy
3:51 AM 59.0 °F 57.9 °F 96% 29.81 in 6.0 mi WSW 4.6 mph - N/A   Partly Cloudy
5:51 AM 57.0 °F 50.0 °F 77% 29.86 in 10.0 mi North 6.9 mph - N/A   Clear
6:51 AM 54.0 °F 46.9 °F 77% 29.89 in 10.0 mi Calm Calm - N/A   Clear
7:51 AM 55.9 °F 46.0 °F 69% 29.91 in 10.0 mi Calm Calm - N/A   Clear
9:51 AM 63.0 °F 42.1 °F 46% 29.92 in 10.0 mi North 11.5 mph - N/A   Clear
10:51 AM 66.9 °F 37.9 °F 34% 29.91 in 10.0 mi NNW 12.7 mph 21.9 mph N/A   Clear
12:51 PM 73.0 °F 34.0 °F 24% 29.86 in 10.0 mi NW 13.8 mph 19.6 mph N/A   Clear
1:51 PM 75.0 °F 30.9 °F 20% 29.82 in 10.0 mi NW 10.4 mph - N/A   Clear
2:51 PM 75.9 °F 30.0 °F 19% 29.81 in 10.0 mi WSW 6.9 mph - N/A   Clear
2:52 PM 75.2 °F 30.2 °F 19% 29.96 in 10.0 mi WSW 6.9 mph - N/A   Clear
3:51 PM 77.0 °F 28.9 °F 17% 29.81 in 10.0 mi NW 13.8 mph - N/A   Clear
4:51 PM 75.9 °F 28.9 °F 18% 29.82 in 10.0 mi NW 20.7 mph 25.3 mph N/A   Clear
5:51 PM 73.9 °F 32.0 °F 21% 29.83 in 10.0 mi NW 12.7 mph - N/A   Clear
6:51 PM 69.1 °F 30.9 °F 24% 29.87 in 10.0 mi WNW 9.2 mph - N/A   Clear
8:51 PM 66.9 °F 33.1 °F 28% 29.93 in 10.0 mi West 10.4 mph - N/A   Clear
11:51 PM 59.0 °F 37.9 °F 46% 29.97 in 10.0 mi West 6.9 mph - N/A   Clear